Theta_e
302 302 304 308 315 321 329 331 334 337 333 335 337 334 328 329 331 329 331 330 328 337 339 341 341 340 343 345 349 349 347 347 346 347 348 344 338 339 339 337 337 336 337 337 337 337 336 337 338 338 338 338 337 336 334 333 332 333 335 335 335 334 333 331 330 334 335 337 337 336 335 333 334 336 336 336 336 335 334 333 332 332 332 331 331 331 330 330 329 328 328 327 326 325 324 324 324
303 303 305 312 321 325 333 334 338 341 336 335 336 337 333 329 329 329 332 330 330 339 340 344 346 346 344 344 350 348 343 341 341 342 342 339 339 339 338 337 337 336 336 337 337 336 337 337 337 337 336 336 335 334 333 333 332 334 335 335 334 332 333 333 332 334 335 336 336 336 335 333 333 334 335 335 333 331 330 332 332 332 332 331 331 331 330 329 327 327 326 326 325 325 323 323 323
303 304 308 316 325 329 335 336 340 342 338 338 333 334 333 329 331 332 331 327 332 341 342 345 347 347 344 344 343 343 344 340 339 341 341 340 340 339 338 338 336 335 335 336 337 336 336 336 336 336 335 334 333 333 332 333 334 335 335 335 334 332 333 334 333 335 334 336 336 335 334 332 333 333 333 330 327 324 325 328 330 331 330 329 328 329 328 327 326 326 326 325 324 323 323 323 323
304 308 312 319 330 334 340 337 342 344 339 339 333 334 337 333 330 330 332 328 334 341 344 347 347 341 342 346 342 346 348 340 341 342 342 340 339 339 338 337 336 335 335 336 336 335 335 334 335 335 334 333 333 333 332 332 333 334 335 334 334 332 333 332 331 334 333 335 335 334 333 333 332 331 329 323 319 317 318 319 322 325 325 325 323 324 324 324 326 325 325 325 324 323 322 323 323
305 312 316 321 332 336 341 338 340 341 336 338 334 338 341 336 331 328 334 335 338 343 344 348 348 339 340 345 341 348 348 341 341 341 342 340 339 339 337 338 336 335 336 337 335 335 335 334 334 333 333 333 332 333 332 333 333 334 334 333 333 332 333 331 329 333 333 334 334 333 333 333 331 327 324 320 319 319 318 316 316 318 320 321 321 323 324 324 325 324 323 323 323 323 322 323 323
307 314 319 322 327 331 338 339 339 337 334 335 334 340 340 334 332 332 334 335 337 339 340 346 346 343 346 342 337 342 342 340 341 341 341 341 340 339 338 338 336 336 337 336 336 335 334 334 333 333 333 333 333 332 332 332 332 332 332 332 332 331 333 332 330 333 333 334 334 333 334 331 326 323 323 323 323 323 321 320 321 323 324 324 324 326 325 325 325 324 324 323 324 324 324 323 322
309 316 325 326 327 329 336 340 338 336 333 332 333 337 339 334 333 334 333 332 335 338 340 345 344 347 351 341 339 339 336 339 340 342 341 340 340 338 338 337 336 336 336 336 335 334 333 333 333 333 332 333 333 332 330 330 331 330 330 329 328 330 332 333 333 334 333 334 334 334 332 327 324 324 325 326 326 325 322 322 324 325 325 325 325 325 324 324 324 324 324 323 325 325 324 323 321
312 320 328 328 331 333 337 339 335 336 335 331 332 332 335 333 332 332 336 336 334 340 344 345 344 351 351 340 344 341 335 339 340 342 341 340 340 338 338 337 336 336 336 335 334 334 333 334 333 333 332 333 332 331 329 329 331 330 329 325 325 330 333 334 334 335 334 334 335 334 331 326 326 327 327 328 327 327 325 324 325 324 324 323 324 324 324 324 323 323 323 322 323 324 323 322 322
315 320 325 327 331 332 335 337 332 334 335 333 332 330 332 332 331 329 333 334 332 344 351 346 342 345 348 344 346 341 338 341 341 342 340 340 339 338 338 336 336 335 336 334 333 334 334 335 333 332 332 332 331 330 329 329 330 330 329 327 328 332 333 334 334 335 335 334 335 333 329 327 328 329 329 329 328 328 327 326 326 325 324 324 324 325 324 322 321 322 323 321 321 321 321 322 322
317 321 325 329 328 327 329 332 331 333 333 332 330 328 330 331 330 328 329 330 331 346 350 342 341 342 345 348 346 340 340 341 340 342 340 340 339 338 338 336 335 333 335 333 332 333 334 335 333 333 331 329 330 331 330 330 329 330 332 332 333 333 333 335 335 335 335 335 334 331 328 329 330 331 331 330 328 327 327 326 325 324 324 325 325 324 323 321 321 322 322 322 321 321 322 323 323
324 325 323 325 326 323 321 324 326 331 332 331 329 328 328 330 329 328 330 328 334 346 344 340 344 345 344 345 343 339 340 341 341 341 340 340 339 339 337 336 334 333 334 332 331 333 334 335 333 333 329 328 331 331 331 331 330 333 334 335 335 334 334 335 335 336 335 335 333 330 330 331 332 331 331 330 328 328 327 326 325 325 324 323 323 322 322 322 322 322 322 322 323 323 323 323 322
320 324 323 322 325 321 319 322 321 323 327 326 327 328 327 329 329 329 331 327 337 349 345 342 342 344 345 344 342 340 340 341 340 340 341 340 339 338 337 336 334 333 333 331 331 333 335 334 333 333 327 329 333 331 331 331 331 334 335 335 335 335 336 336 335 335 335 334 332 331 333 333 332 331 331 330 328 326 324 323 324 325 323 322 322 322 323 323 323 323 323 324 324 324 324 324 323
316 323 325 322 325 326 325 324 322 322 322 322 323 325 323 325 328 329 331 327 336 346 343 343 341 343 346 343 341 342 341 341 340 341 340 339 339 338 336 335 335 334 333 332 331 333 335 333 333 332 327 328 332 332 332 331 331 334 335 335 336 335 335 336 335 335 335 334 333 333 333 333 332 331 331 328 326 321 317 319 323 323 323 323 323 323 323 324 325 324 325 325 325 325 324 325 325
316 321 323 320 323 327 329 323 324 323 318 319 321 324 322 321 327 327 325 325 336 344 339 336 339 346 346 342 343 344 342 341 340 341 340 340 339 338 336 335 335 334 333 332 331 332 334 333 333 331 328 328 331 332 333 332 331 333 335 335 335 336 335 335 335 335 334 333 333 333 333 333 332 331 329 325 320 315 316 322 324 324 325 325 325 324 324 325 326 325 325 325 324 324 324 325 326
316 321 319 320 321 321 323 321 322 321 317 319 319 326 329 323 331 334 325 321 330 336 333 331 334 343 345 343 345 343 342 341 340 340 340 340 339 337 337 336 335 334 334 333 332 332 333 333 332 331 328 328 331 333 333 332 332 333 334 335 335 335 335 335 335 334 334 333 333 333 333 332 331 329 326 320 315 314 319 323 323 324 325 324 325 325 324 325 324 323 323 323 324 324 324 325 325
319 324 320 321 323 317 317 320 323 321 320 321 318 324 331 324 328 337 331 326 331 332 333 335 331 334 340 341 339 339 341 340 340 340 340 340 339 338 337 336 335 334 334 333 333 332 332 332 331 329 328 329 332 333 333 333 333 334 334 335 335 335 335 335 335 334 334 333 333 332 332 331 329 324 319 315 314 318 321 322 322 324 325 324 324 324 324 323 323 323 323 323 324 323 323 323 323
318 321 322 322 321 316 316 322 322 319 321 324 323 324 329 328 327 331 330 330 335 334 333 332 326 326 331 333 330 335 342 340 340 340 339 339 338 337 337 335 334 333 334 333 333 332 330 330 330 330 330 331 333 334 334 334 334 335 335 335 335 335 335 334 334 334 334 333 333 331 330 329 324 318 315 314 318 321 322 322 322 323 324 324 324 324 324 324 323 324 323 323 323 323 324 324 323
317 319 322 318 317 317 318 320 318 318 322 324 324 324 326 330 328 327 331 334 332 332 332 328 326 326 327 328 329 337 342 339 340 339 338 339 337 337 336 334 334 333 333 333 332 331 330 330 331 332 333 333 333 333 333 334 335 335 335 335 335 335 334 334 334 333 333 332 331 330 328 324 319 315 315 317 320 322 322 323 323 323 323 323 324 324 325 325 325 325 324 325 324 324 326 325 325
318 323 321 315 318 319 315 316 316 317 322 322 323 325 324 325 322 322 332 337 331 333 335 330 331 331 329 326 326 333 340 340 339 339 339 337 337 336 335 334 333 333 333 332 332 332 332 332 333 334 333 333 333 332 333 334 334 335 335 335 334 334 334 334 333 332 332 331 329 327 324 319 316 316 318 320 321 322 322 323 324 324 324 324 325 325 326 326 326 326 326 326 325 326 327 326 325
317 321 319 317 319 318 311 312 314 314 317 321 325 324 324 322 316 318 330 336 333 335 332 331 335 331 325 320 318 321 331 340 339 338 338 337 337 336 335 334 333 333 332 332 332 332 333 333 333 333 332 333 333 332 333 333 333 334 334 334 334 334 334 333 332 332 330 328 326 322 319 317 317 319 320 321 321 322 323 324 324 325 325 325 326 326 327 327 327 327 327 326 325 326 327 326 325
312 316 319 318 315 315 312 310 312 313 315 320 324 324 325 321 314 317 328 334 336 332 321 319 323 318 315 314 313 313 319 332 340 338 337 336 336 336 335 334 333 333 332 332 332 332 333 333 333 333 332 333 334 333 333 332 332 334 333 333 333 333 333 332 331 330 327 324 321 318 318 319 319 320 321 322 322 323 324 324 325 325 325 326 327 327 328 328 327 327 327 326 326 326 327 327 326
309 314 317 314 311 312 312 309 311 313 315 319 319 320 322 319 319 319 323 332 330 321 312 310 311 310 310 310 311 311 312 320 331 336 337 337 335 335 335 334 333 332 331 332 333 332 332 333 333 332 332 333 334 333 332 331 331 331 332 332 332 331 331 330 329 327 324 320 318 318 320 321 321 321 322 323 323 324 324 324 325 326 326 327 328 327 327 328 327 327 327 327 326 326 326 326 326
307 312 313 311 310 310 311 310 310 312 313 315 312 316 318 318 323 315 315 324 317 310 309 309 309 308 309 309 309 309 310 311 316 321 326 333 335 334 334 333 332 331 331 333 334 332 330 333 333 330 331 334 333 332 332 331 329 328 328 329 328 327 326 325 324 323 320 318 319 321 322 323 322 323 323 323 324 324 324 325 326 327 327 327 327 325 325 326 325 325 326 326 326 325 326 326 325
307 311 312 309 308 308 311 309 310 312 311 311 311 317 320 321 323 315 315 316 309 308 309 308 309 309 308 308 307 306 307 308 308 310 312 319 328 332 332 332 332 331 331 332 334 332 330 333 333 330 331 333 333 331 331 329 327 327 326 326 323 322 322 320 319 318 318 319 322 323 324 324 324 324 324 324 324 324 326 326 325 326 326 326 325 324 324 323 322 323 324 324 325 325 324 323 322
309 309 311 309 310 310 312 310 313 314 310 312 311 315 322 320 318 318 318 312 307 309 308 307 309 308 308 307 306 305 305 306 305 307 308 310 316 324 328 330 331 332 331 332 334 332 331 334 331 329 331 332 332 331 328 325 325 325 324 322 320 320 319 318 318 318 320 322 323 323 324 325 325 325 324 324 325 325 326 326 325 325 325 325 323 323 324 323 321 320 321 323 323 323 321 319 317
305 304 309 311 311 311 311 311 314 313 310 313 308 311 321 317 315 320 316 309 308 308 307 308 308 307 307 306 305 305 305 305 303 304 306 307 310 315 321 326 329 331 331 332 333 331 331 333 330 329 331 332 331 328 324 322 322 322 321 319 319 319 318 318 319 320 322 323 323 323 324 325 325 325 324 324 324 325 325 325 325 324 325 325 323 323 323 321 320 318 319 322 322 322 318 314 313
302 302 308 310 310 311 310 309 312 311 309 312 308 309 318 313 317 322 313 307 308 308 308 307 307 307 306 305 305 304 304 304 303 303 303 305 306 307 311 317 324 326 328 330 332 331 331 332 330 329 331 331 327 322 320 321 321 320 319 318 319 319 319 320 322 323 324 324 324 324 325 325 325 325 325 324 324 324 323 324 324 324 325 324 323 322 319 317 316 316 319 322 322 320 315 311 311
300 303 305 308 310 308 309 310 311 308 306 312 311 309 315 314 319 319 311 308 308 308 309 308 307 307 305 305 304 303 304 303 302 302 302 302 302 303 304 307 313 320 324 327 329 330 331 332 330 330 331 329 324 320 320 321 321 320 319 319 319 320 321 322 324 324 324 324 324 324 325 326 326 326 326 325 324 323 321 322 322 322 323 322 321 320 315 312 313 316 319 321 321 318 314 311 310
300 302 302 307 311 307 306 310 309 305 305 313 311 306 311 316 317 314 309 308 308 308 310 310 308 307 305 305 304 304 303 302 302 302 302 302 301 301 302 303 305 312 319 322 326 329 330 331 330 330 330 327 322 321 321 321 321 320 319 320 321 322 322 323 324 324 325 325 324 325 325 325 326 326 326 325 324 322 320 320 320 320 321 320 319 317 314 311 312 316 319 320 318 315 312 309 308
298 300 302 306 310 308 305 309 311 304 305 313 310 306 312 315 313 309 309 309 309 310 310 311 310 308 307 305 305 305 303 302 302 301 301 303 303 301 301 303 303 306 312 317 322 326 327 329 329 329 330 326 323 322 322 321 322 321 321 321 322 323 324 324 324 325 325 326 326 326 326 325 325 325 324 323 322 321 320 319 318 318 318 318 317 315 313 311 312 316 318 317 314 312 309 306 307
300 300 303 304 304 307 305 308 312 305 307 313 305 306 311 312 310 307 309 309 309 310 310 310 311 309 308 307 305 305 304 302 301 300 300 301 305 305 301 302 302 304 307 311 317 321 324 326 326 327 329 326 323 323 322 322 322 321 321 322 323 324 324 325 325 326 326 326 327 326 326 324 323 322 321 321 320 320 319 318 317 317 316 315 314 312 310 310 311 314 317 316 312 309 306 303 304
304 299 302 305 304 307 305 306 310 307 310 313 304 304 308 309 310 307 308 310 309 310 309 309 310 310 309 308 307 307 306 302 300 300 300 300 303 307 306 303 301 303 305 307 310 315 319 323 324 323 326 327 324 323 322 322 322 322 321 321 322 324 325 325 325 325 325 325 325 324 324 322 321 321 319 318 319 318 318 317 316 315 313 311 310 308 307 308 310 313 314 315 312 307 304 301 299
306 300 301 305 304 305 304 304 307 307 309 310 306 306 309 311 311 308 307 309 310 309 309 309 309 309 309 309 308 307 307 305 303 300 299 300 301 303 307 306 303 301 304 306 308 310 313 319 322 321 322 324 324 323 322 321 321 322 321 321 322 323 324 325 324 324 325 324 324 322 321 321 320 320 317 316 317 317 317 317 315 313 310 307 306 304 305 306 309 311 310 311 312 307 303 299 296
305 303 303 304 303 303 303 302 303 306 308 308 308 307 307 310 310 308 307 307 309 309 309 309 308 308 308 309 309 307 307 308 307 303 300 300 301 302 303 306 306 302 302 306 308 308 309 313 317 318 319 320 322 322 322 321 321 321 321 321 322 322 323 324 323 323 323 322 321 320 319 319 318 318 316 315 314 315 315 315 314 310 306 304 302 302 303 306 307 310 309 307 308 307 302 298 294
301 301 303 303 302 301 302 302 302 306 309 307 307 307 305 307 309 309 307 305 308 308 307 308 307 307 307 307 308 308 306 307 307 304 301 300 302 303 301 303 307 305 302 303 307 309 308 308 309 312 315 316 319 321 321 321 320 319 319 319 320 320 320 321 321 321 320 319 318 318 317 317 316 315 314 312 312 313 313 313 312 308 303 300 300 300 302 305 306 308 308 305 303 303 301 297 294
299 300 300 301 300 300 301 303 303 303 308 308 307 307 306 306 307 309 307 305 306 306 306 307 307 306 306 306 307 307 307 307 305 303 302 300 301 302 301 301 303 304 302 301 305 308 308 307 305 307 309 311 314 316 317 317 317 317 316 316 316 316 318 317 317 317 316 316 316 316 316 314 313 312 311 310 309 311 311 311 309 304 299 298 298 299 302 304 305 305 305 304 301 298 297 296 294
299 299 300 300 299 301 302 303 303 302 305 309 308 308 308 306 305 306 306 305 306 306 306 305 306 306 307 306 306 306 307 306 303 302 301 299 300 301 301 301 301 302 301 300 303 306 308 309 307 304 304 306 309 310 312 313 312 312 312 313 313 312 313 313 312 312 312 312 313 313 312 311 310 310 309 308 308 308 308 307 305 300 296 296 297 298 301 303 303 304 302 302 301 298 294 293 294
300 299 299 300 300 301 301 299 301 303 302 304 306 306 306 305 304 303 303 305 305 306 307 306 306 306 306 307 306 305 306 305 303 301 299 298 299 300 300 300 301 301 301 301 304 306 306 307 309 307 303 303 304 305 307 308 308 308 308 309 310 309 309 310 310 309 309 309 309 309 309 308 307 308 307 307 306 306 306 304 301 298 295 295 296 297 300 302 302 303 302 300 299 298 295 293 294
302 300 298 301 301 301 302 300 301 302 300 302 305 303 302 302 302 301 301 302 302 303 305 306 306 306 306 306 307 305 305 305 304 300 298 297 298 298 299 299 300 301 300 301 303 305 304 304 307 309 307 304 303 303 304 304 305 306 307 306 307 307 305 306 308 307 306 307 306 305 305 305 305 305 305 305 304 303 304 302 298 296 294 294 295 297 299 301 301 301 302 300 297 295 294 293 295
302 301 300 301 300 299 302 303 302 300 298 300 303 301 300 300 299 300 300 299 301 300 301 303 303 304 305 305 306 306 305 305 304 302 298 297 297 297 297 298 300 300 299 300 302 304 304 303 304 306 308 308 306 303 302 302 303 303 303 302 303 304 302 303 305 304 303 303 302 302 302 302 303 304 304 303 302 301 301 300 297 295 294 294 295 297 299 300 301 300 300 301 299 295 292 293 294
302 301 300 300 300 299 299 301 299 300 300 298 300 302 304 304 303 304 302 299 300 299 299 301 301 301 301 302 303 304 304 304 304 304 300 297 296 297 297 297 298 298 299 301 303 304 303 303 304 305 306 307 307 305 303 302 301 301 301 300 301 301 299 299 301 300 299 299 299 299 299 300 302 302 301 299 298 297 297 297 296 294 293 293 294 295 297 299 300 300 299 299 299 298 295 294 294
303 302 301 299 300 300 301 301 300 303 304 300 299 302 307 308 306 305 302 301 301 300 301 304 303 301 301 301 301 301 302 302 303 304 302 298 296 296 297 297 297 297 298 299 301 303 303 302 303 304 305 305 305 307 306 304 302 301 300 299 299 297 296 296 297 296 296 298 298 297 297 298 299 298 297 296 295 295 295 295 294 294 292 293 294 294 296 298 299 299 299 298 298 298 298 296 295
302 301 301 300 301 301 302 302 301 303 304 300 299 301 303 303 301 301 300 300 301 300 301 302 302 301 301 301 301 300 300 301 302 302 302 299 296 296 296 297 297 297 299 299 299 300 301 301 302 303 304 303 303 305 306 305 304 302 300 299 298 296 294 293 294 294 295 296 297 296 295 294 294 294 293 293 293 293 294 294 294 294 293 293 293 294 296 297 298 298 298 298 297 297 298 297 296
302 300 300 302 301 301 302 301 301 302 300 299 299 300 301 301 300 300 299 300 301 301 299 299 298 298 299 300 300 300 300 300 301 302 302 300 297 296 296 296 297 298 299 299 298 298 299 300 301 301 302 302 302 303 303 304 304 304 303 301 299 297 296 294 292 292 293 294 294 294 293 292 292 292 292 292 293 293 293 294 294 294 293 292 292 293 295 296 297 297 297 298 297 297 297 296 296
301 300 299 300 300 301 302 301 301 300 299 300 300 298 299 301 301 299 298 299 301 302 301 299 298 297 297 297 298 299 299 300 301 301 302 300 297 296 297 297 297 297 298 298 298 298 298 298 299 300 300 300 301 302 302 302 303 303 302 300 298 297 296 294 292 291 291 292 292 292 291 291 291 292 292 292 292 293 293 293 292 292 292 292 292 293 293 294 295 295 295 295 296 296 296 296 296
299 298 298 299 298 298 298 300 302 301 299 301 302 300 299 300 300 299 299 301 301 301 301 299 298 297 297 296 297 297 298 299 300 300 301 300 298 297 297 297 297 297 297 297 298 298 297 297 297 298 298 299 299 300 301 301 301 301 300 299 297 295 294 293 291 290 290 290 291 291 290 291 291 291 291 292 292 292 292 292 292 292 293 293 294 294 295 296 296 295 295 294 294 294 295 296 296
298 300 301 301 299 296 296 299 299 302 304 302 300 299 298 300 301 302 302 304 305 303 301 301 300 299 298 297 296 296 297 298 299 300 300 299 298 297 297 296 296 296 296 296 297 297 297 296 297 297 297 297 298 298 299 300 300 301 301 300 299 297 295 293 291 290 290 290 290 290 290 290 291 291 291 291 292 292 292 293 293 294 295 295 295 296 297 297 296 295 295 293 293 293 294 294 294
300 302 302 301 300 297 298 300 298 303 308 301 298 298 297 299 302 301 302 303 302 301 301 302 301 301 301 299 298 297 297 297 298 299 299 299 298 296 295 295 295 295 295 296 296 296 296 296 296 296 296 296 297 297 297 298 298 299 300 300 300 300 299 296 294 292 291 291 290 290 290 290 290 291 291 292 293 293 293 294 294 295 296 295 294 295 295 294 293 293 292 291 291 291 291 292 292
301 303 302 301 302 301 301 303 300 302 304 297 296 298 297 298 299 298 299 299 298 297 298 299 299 300 301 300 300 298 297 297 297 298 299 299 299 296 294 295 295 295 295 295 295 295 295 295 296 295 295 295 296 296 296 296 297 297 297 298 299 299 299 298 297 295 293 291 291 290 290 290 291 291 292 293 293 293 293 294 294 295 295 294 293 293 292 292 291 290 290 290 290 290 289 289 290
300 302 303 303 304 303 304 304 298 298 300 296 294 297 298 300 301 300 299 298 298 298 297 297 298 298 299 299 299 299 298 298 297 297 297 298 298 295 294 295 294 294 294 294 294 294 294 294 295 295 295 294 295 295 295 295 296 296 296 297 297 297 297 296 296 296 294 292 292 292 291 291 291 292 293 293 293 293 293 293 293 293 293 293 293 292 291 291 290 290 290 290 289 288 288 288 288
300 300 300 302 303 300 301 303 299 298 300 297 295 298 301 304 305 304 302 300 301 300 299 298 297 297 298 298 298 298 298 297 296 296 296 297 297 295 294 295 294 294 294 294 294 293 294 294 294 294 294 294 294 294 294 294 295 295 295 296 296 296 296 296 295 295 294 293 292 292 292 292 292 293 293 293 293 292 291 291 291 292 293 294 293 293 292 291 291 291 290 289 288 287 286 286 286
298 297 298 301 302 300 300 301 299 298 299 298 297 300 302 302 301 301 300 300 300 300 299 299 299 298 298 298 298 298 297 296 296 296 296 296 296 295 294 294 294 294 294 293 293 293 293 293 293 294 294 294 294 293 293 294 294 294 294 295 294 295 296 296 295 294 295 295 294 293 292 292 292 293 293 292 291 289 289 290 291 293 294 293 293 292 292 292 290 289 288 287 286 285 285 285 285
298 298 301 301 299 300 302 300 298 298 300 301 300 301 301 300 301 302 302 302 301 300 301 301 300 300 299 299 299 298 297 297 296 296 296 296 296 295 294 294 294 294 294 293 293 293 293 293 293 293 293 293 293 293 293 293 293 293 293 293 293 294 295 295 295 295 294 294 293 292 292 292 292 292 291 290 289 288 289 291 292 293 293 292 291 290 290 289 287 286 286 285 285 285 284 284 284
301 302 303 300 297 300 302 301 301 301 302 302 302 302 301 300 303 305 304 303 302 302 304 304 303 301 301 300 300 299 299 298 297 296 296 296 296 295 294 294 294 294 294 293 293 292 292 293 292 292 293 293 293 293 293 293 293 292 292 292 292 293 294 294 294 294 293 292 291 291 291 291 291 290 289 288 288 289 290 292 292 292 291 290 289 287 286 285 284 284 284 284 284 284 284 283 283
301 302 300 300 300 301 301 302 302 303 302 302 302 302 302 302 303 304 303 302 302 303 305 306 304 302 301 301 301 301 300 300 299 297 296 296 296 295 294 294 294 294 293 293 292 292 292 292 292 292 292 292 293 292 292 292 292 292 292 292 292 293 292 292 292 292 292 291 291 291 290 290 289 288 288 288 289 290 290 290 290 290 289 287 286 284 283 283 283 283 283 283 283 283 283 283 282
300 301 300 302 302 302 302 302 303 303 303 303 303 303 303 303 304 304 302 302 302 303 304 304 303 302 302 302 302 303 302 301 301 299 297 296 296 295 294 294 293 293 293 292 292 292 291 291 291 291 292 292 292 292 292 292 292 291 291 291 291 291 291 291 291 291 291 291 291 291 290 289 288 287 288 289 290 290 290 289 289 288 287 285 284 283 282 282 282 282 283 283 282 282 282 282 281
301 301 300 301 302 302 303 303 303 303 302 303 304 304 304 302 302 303 302 303 303 304 305 305 305 305 304 304 303 303 303 301 301 300 298 296 296 294 293 293 293 293 292 292 292 291 291 291 291 291 291 291 291 291 291 291 291 291 291 290 290 290 290 290 290 290 290 290 290 290 289 288 288 287 288 289 290 289 289 289 288 286 285 283 283 283 282 282 282 282 282 282 282 281 281 281 280
302 301 301 301 301 302 304 304 303 302 302 303 304 305 304 302 305 306 305 305 306 306 308 307 306 305 303 303 303 301 300 299 298 298 297 297 296 294 292 292 292 292 292 291 291 291 290 290 290 290 290 291 291 291 291 291 290 290 290 290 290 289 289 289 289 289 289 289 288 288 288 287 287 287 288 289 290 289 288 288 287 285 284 283 283 283 282 282 282 282 281 281 281 280 280 280 280
Wind_Speed
15 14 11 9 8 3 2 2 1 2 2 2 3 2 4 5 2 3 5 4 2 2 2 1 3 4 3 3 7 6 3 6 6 5 4 2 11 28 28 26 34 36 35 32 30 28 26 25 22 21 21 20 19 19 18 17 19 22 20 19 18 19 19 17 18 17 15 15 14 16 16 15 14 14 14 13 14 13 14 13 13 12 11 11 11 11 11 10 11 11 11 10 11 12 13 13 13
16 14 10 6 4 1 2 3 1 2 1 4 3 4 4 2 1 5 10 7 3 3 2 2 4 3 2 1 5 4 1 1 3 3 1 8 18 22 23 28 37 37 35 33 31 29 27 26 23 23 22 20 19 19 19 18 19 19 18 19 17 18 19 17 18 18 16 16 16 16 15 15 14 14 13 13 13 13 13 13 13 13 12 12 12 12 11 10 10 11 11 10 11 12 13 13 13
17 14 9 4 1 2 1 3 1 2 2 6 4 4 2 2 6 9 11 8 6 4 3 1 2 2 2 2 1 3 2 1 2 1 3 15 17 17 25 32 37 36 35 33 32 30 28 26 25 24 23 22 20 20 20 19 19 17 17 18 17 16 17 17 18 18 17 17 16 16 15 15 15 14 13 12 12 12 13 13 13 13 12 11 10 10 10 10 11 11 11 11 12 12 13 13 13
15 12 9 3 1 2 3 1 2 4 4 5 4 5 3 6 10 8 8 7 6 3 1 0 1 0 2 2 1 2 1 0 3 1 5 13 13 21 31 34 36 35 35 34 33 31 29 28 26 25 23 22 21 20 21 20 20 18 18 18 17 16 16 16 18 18 18 18 16 16 16 16 15 14 13 12 12 12 12 11 12 11 10 9 8 8 9 11 11 11 11 11 12 12 13 12 12
12 9 7 2 2 0 3 1 2 4 6 4 3 5 5 8 7 6 7 6 6 4 2 1 1 1 2 1 0 1 2 2 3 3 7 11 16 27 32 35 36 34 34 33 33 32 30 28 26 25 23 22 21 21 20 20 20 19 20 19 17 17 17 16 18 19 18 18 17 17 17 16 16 15 13 13 13 12 11 11 11 10 10 9 9 11 12 12 12 11 11 10 10 11 12 11 11
9 7 4 1 1 1 2 2 2 5 7 5 3 5 5 6 5 6 6 3 2 3 3 1 1 2 1 1 1 3 2 3 4 6 10 14 21 29 32 35 35 34 34 33 33 32 30 28 26 25 23 23 21 21 21 21 20 19 20 20 19 19 19 18 19 19 19 19 18 18 18 17 16 16 14 13 12 11 11 11 12 12 12 12 12 13 12 11 11 11 12 11 10 11 11 10 10
8 5 3 1 1 1 2 5 5 6 5 6 5 4 4 4 4 4 3 0 0 3 2 1 2 5 1 2 1 1 1 2 4 8 14 19 26 30 32 34 34 33 33 33 32 31 30 28 26 25 23 23 21 21 21 21 19 18 19 20 21 21 21 20 20 20 20 19 19 19 17 17 16 15 14 13 12 12 12 12 13 13 13 12 12 11 10 9 10 10 10 10 9 10 9 9 9
6 2 1 2 1 1 2 6 5 6 4 4 4 5 5 4 4 1 1 2 1 3 0 2 1 3 3 1 1 2 3 4 6 11 18 23 29 30 32 33 33 32 33 34 32 30 29 27 26 25 24 22 21 21 21 20 18 18 19 21 23 22 21 21 21 21 21 20 19 19 17 16 15 14 14 14 13 12 13 13 13 13 12 12 11 10 10 10 10 9 9 8 8 9 9 9 9
3 2 0 1 2 2 3 5 5 4 4 5 4 7 6 4 3 0 1 2 1 2 2 3 1 1 3 2 1 3 2 8 10 15 22 26 29 30 31 32 33 33 33 33 31 31 29 27 26 25 24 22 21 21 21 20 19 20 20 22 22 22 21 20 21 21 22 21 20 18 17 16 15 14 13 13 13 13 13 13 13 12 12 11 10 10 10 10 9 9 9 9 8 9 10 10 9
2 1 1 1 1 4 6 5 5 4 5 5 5 7 5 2 1 1 2 4 2 2 2 3 2 1 3 2 2 2 4 14 16 19 24 27 29 30 30 30 33 33 32 32 32 31 29 27 26 26 24 22 22 21 20 20 20 21 21 21 21 21 20 20 21 22 22 22 19 18 17 15 14 13 12 12 12 13 12 11 11 11 11 10 9 9 9 8 9 9 9 10 10 11 11 10 10
1 2 2 2 2 6 7 6 6 5 4 5 5 6 5 3 1 2 2 4 3 4 1 2 1 2 2 1 2 1 9 18 20 23 26 28 29 29 29 28 31 32 31 32 32 31 29 27 26 26 24 23 23 21 21 21 21 21 19 19 19 20 20 21 22 22 22 21 19 18 17 16 15 14 13 12 11 11 10 9 10 10 10 9 9 9 10 10 9 10 11 12 12 12 11 11 11
1 2 3 3 5 6 5 5 8 6 6 5 5 3 2 4 3 4 4 5 3 4 3 4 3 3 3 2 2 3 12 19 22 25 28 29 28 29 28 28 30 31 30 31 31 31 29 26 26 25 24 25 23 22 21 21 21 19 18 18 18 20 21 21 22 21 21 20 19 18 17 16 16 15 13 11 10 9 8 8 9 10 10 10 10 10 10 11 10 12 13 13 13 12 12 12 12
2 1 4 2 4 4 4 4 5 5 7 6 4 3 1 2 3 6 5 4 2 3 5 6 4 5 2 2 1 4 11 18 23 27 29 29 28 28 27 28 29 29 30 30 30 31 29 26 27 26 25 26 23 23 22 21 21 18 18 18 19 20 21 21 21 20 20 19 19 18 17 17 16 14 12 10 8 8 8 9 11 11 11 11 11 11 11 11 12 13 13 12 12 13 13 12 12
2 3 4 3 1 2 4 4 2 4 7 3 2 4 3 2 3 4 4 3 5 4 3 3 4 5 2 2 2 3 10 18 24 28 28 28 27 27 27 28 28 29 29 29 29 30 29 27 27 27 25 25 23 23 22 21 21 18 18 18 19 20 21 22 20 19 19 19 19 18 18 16 15 13 10 8 7 8 11 13 13 12 12 12 11 12 12 11 11 11 11 11 12 13 12 10 11
3 2 4 2 2 1 4 4 3 6 6 2 0 4 3 3 2 2 2 4 6 3 1 1 2 3 3 5 4 5 15 23 27 28 28 27 26 26 27 28 28 29 29 28 28 29 29 28 28 27 26 25 23 23 22 22 20 19 18 18 19 20 21 22 21 20 19 20 19 18 17 15 14 12 9 8 8 10 14 15 15 15 14 14 13 12 12 11 11 11 11 12 13 12 11 10 11
3 2 3 2 3 3 4 3 3 4 5 3 2 5 3 4 3 2 2 2 3 3 1 1 1 1 2 5 3 5 22 26 28 29 27 27 26 26 27 28 28 28 28 28 28 28 29 29 29 27 27 25 23 24 22 21 20 19 19 19 20 20 21 21 21 20 20 20 19 18 16 15 13 10 9 10 12 14 15 15 15 15 14 14 13 12 12 12 12 11 11 12 12 12 11 10 9
2 3 2 4 4 4 4 4 4 4 4 5 5 7 3 5 3 2 3 2 1 3 3 0 1 2 1 4 9 6 25 26 29 29 25 26 24 25 27 27 27 27 27 28 28 28 28 29 29 27 26 25 24 23 22 21 20 20 20 20 21 21 22 22 21 21 21 21 19 18 16 14 12 11 12 14 16 16 15 15 14 13 12 12 11 10 10 10 11 11 11 12 12 12 11 10 9
3 2 3 5 5 5 4 5 4 2 2 4 6 5 2 4 5 4 4 4 2 3 3 1 1 1 1 3 9 8 27 25 29 28 23 24 22 23 25 26 26 26 27 27 28 27 28 29 28 27 26 25 24 23 22 21 21 21 21 22 22 22 22 21 21 23 22 21 19 17 15 13 12 13 15 17 17 16 16 15 14 12 11 10 8 7 7 9 11 12 12 12 12 11 10 11 11
3 3 3 5 5 4 3 2 2 1 3 4 6 4 1 2 3 4 3 2 1 2 2 2 1 2 4 6 12 1 21 26 27 26 24 23 21 22 22 24 25 26 27 27 28 28 29 29 28 27 26 25 24 23 22 22 22 22 21 23 23 22 22 21 21 21 21 19 18 16 14 14 14 16 17 17 17 17 16 14 13 11 9 8 7 7 7 9 11 12 13 12 12 10 10 13 13
2 4 4 6 4 2 1 1 2 3 3 4 6 4 1 1 1 3 2 2 4 4 2 1 0 3 7 9 14 12 6 21 24 21 22 22 20 22 22 22 25 26 28 28 29 30 30 29 29 27 26 25 25 24 24 23 23 22 23 23 24 22 22 22 21 20 19 19 18 16 16 17 18 18 18 17 17 16 15 13 11 10 8 7 6 6 7 9 11 12 13 13 12 11 11 14 15
2 3 5 5 3 2 2 1 3 4 2 3 5 4 2 2 2 2 3 3 4 1 2 3 3 5 9 10 12 15 11 9 21 19 18 20 18 21 23 22 24 25 27 29 29 31 30 29 29 27 26 27 26 26 26 25 25 25 25 25 24 24 23 23 22 21 20 19 18 18 19 20 19 19 18 17 16 15 14 12 10 9 8 7 7 7 7 10 12 12 12 13 13 13 12 13 16
2 2 4 4 2 3 3 2 2 3 2 2 4 4 2 2 2 3 3 3 3 1 3 5 5 7 9 10 11 11 13 7 9 15 16 19 18 18 22 23 24 25 26 28 29 31 30 28 30 28 27 28 27 27 28 27 26 26 26 26 25 24 24 24 23 22 20 19 19 21 21 21 20 19 18 17 16 14 12 11 10 9 8 8 9 8 9 11 11 11 11 12 13 14 14 15 15
2 3 1 3 2 3 2 2 2 1 2 3 3 3 1 3 3 2 0 3 1 2 3 4 4 5 7 8 9 9 10 11 6 2 3 12 17 17 20 23 26 27 28 27 27 31 30 27 30 29 28 30 29 29 29 27 26 26 26 26 25 25 25 25 24 23 21 21 22 22 22 21 21 20 18 16 15 13 11 10 10 9 9 10 10 9 10 11 10 10 11 14 16 16 16 18 17
0 3 4 4 2 2 2 2 3 1 2 4 2 2 1 1 3 1 1 3 0 1 2 3 4 3 5 6 7 9 10 10 11 11 10 2 9 15 18 22 26 27 28 27 27 31 30 27 30 30 29 31 31 30 29 28 27 26 26 25 25 25 25 25 24 24 23 24 23 22 21 21 21 20 18 16 14 13 13 12 11 11 10 11 10 10 10 10 11 11 13 16 19 19 20 19 18
2 3 5 4 3 4 5 4 5 4 4 3 1 2 2 3 1 0 3 2 0 2 3 3 4 4 4 6 7 8 10 11 13 13 12 10 1 11 17 19 23 26 27 27 27 31 30 27 30 30 30 32 32 32 30 29 29 27 27 26 26 26 26 25 25 26 26 25 23 22 21 19 19 18 17 16 14 14 14 14 13 13 12 11 11 10 10 11 12 12 15 19 20 21 22 21 21
2 4 5 5 5 6 5 5 5 3 3 1 1 5 5 4 2 1 3 1 2 2 2 3 4 5 5 5 6 6 7 9 13 14 13 11 7 3 10 15 20 23 25 26 25 29 30 28 31 32 31 32 32 32 31 30 29 28 28 27 28 27 27 27 26 27 26 25 23 22 19 17 15 15 15 15 15 15 15 15 15 15 14 13 11 11 11 13 14 15 17 20 22 22 22 23 23
4 5 5 6 7 6 3 4 5 3 4 4 3 6 3 1 1 1 2 2 2 2 3 3 3 4 5 5 4 4 5 6 9 12 14 13 11 9 4 7 16 20 22 25 24 27 30 29 30 33 32 32 31 32 31 30 30 29 29 28 28 28 28 28 27 26 25 24 23 21 18 16 15 13 14 14 15 15 15 15 16 16 15 14 13 13 14 15 16 17 19 21 22 23 24 23 23
5 5 5 7 6 4 4 4 5 3 3 4 5 4 0 1 1 1 2 3 2 3 3 2 2 2 3 4 4 3 3 5 6 8 10 12 11 11 9 5 4 15 20 23 24 24 28 29 29 32 33 32 32 32 31 30 30 29 29 29 29 29 29 28 27 26 25 24 22 20 19 17 16 15 15 15 16 15 15 15 16 16 15 15 14 14 15 16 17 19 21 22 23 24 25 24 23
4 2 3 8 6 4 5 5 4 1 1 0 2 3 3 3 1 1 2 3 3 3 4 3 0 1 1 1 2 1 2 4 4 4 4 8 10 10 9 10 7 6 15 20 24 24 26 28 29 33 34 33 33 32 32 31 30 29 29 29 30 30 29 29 27 25 24 23 21 20 19 17 18 18 18 17 16 16 14 15 16 16 16 16 16 16 16 17 18 21 23 24 24 25 25 24 23
3 1 1 5 6 4 5 5 5 1 0 4 0 4 6 5 2 3 2 3 4 4 4 3 1 1 2 1 1 1 0 2 4 2 3 6 7 10 10 9 11 4 8 14 20 24 25 25 27 33 36 34 33 32 32 32 31 30 30 29 30 30 29 28 26 24 23 22 20 20 20 19 20 20 20 19 18 16 15 16 16 16 17 16 17 17 17 19 20 23 25 26 26 26 26 24 23
2 2 1 3 2 3 6 5 5 2 1 7 2 4 6 5 4 4 3 2 4 5 5 4 2 2 2 2 1 2 1 1 3 4 5 5 4 7 10 9 11 9 4 8 15 21 23 23 24 31 37 36 33 33 33 32 31 30 30 30 29 29 28 26 23 22 23 21 20 22 22 21 22 22 20 19 18 17 16 16 16 17 18 17 18 18 18 21 22 24 26 27 27 26 26 25 24
2 2 2 3 1 4 7 4 5 3 4 6 2 4 6 5 5 3 2 2 3 5 7 6 4 3 3 3 2 2 2 3 5 6 5 4 4 4 7 9 10 10 6 4 9 15 19 22 22 27 35 37 35 33 33 32 32 31 30 30 29 28 27 26 23 21 21 20 20 22 23 22 22 22 21 19 18 17 17 16 17 18 18 18 19 19 20 22 24 26 26 26 28 28 27 27 25
3 2 2 3 2 3 5 3 4 4 4 5 3 1 5 5 5 4 3 4 4 5 8 7 6 6 4 4 3 2 3 3 5 6 5 3 2 2 4 7 9 9 8 6 6 10 14 19 22 23 29 36 37 34 33 32 32 31 30 29 28 28 27 26 25 23 22 22 23 23 23 23 22 22 20 19 18 18 18 17 18 18 18 19 20 21 22 24 26 28 28 26 27 29 29 29 28
3 3 2 2 1 1 3 4 5 7 4 4 4 2 6 6 6 6 5 5 5 6 8 9 7 6 5 5 4 4 4 4 4 5 6 5 3 3 3 5 8 9 8 7 7 9 10 14 20 22 26 31 35 35 33 32 32 31 30 29 28 28 27 26 26 26 25 25 25 24 24 23 22 22 21 20 19 19 18 18 18 18 19 20 21 23 24 26 27 28 29 27 26 29 30 30 30
3 3 2 3 2 2 3 4 5 8 6 5 6 6 8 8 7 7 6 5 6 7 8 9 8 7 6 5 5 5 5 5 6 8 9 8 5 5 6 5 7 10 10 7 8 9 9 10 14 19 24 28 31 33 32 32 32 31 30 29 29 28 26 26 26 26 25 25 25 24 24 23 23 22 22 21 20 19 19 19 19 19 20 21 23 24 26 28 28 28 30 30 28 28 29 31 31
3 3 2 2 3 3 5 5 4 5 5 6 6 6 8 9 9 8 7 4 6 8 7 7 9 8 7 6 6 6 7 7 9 13 13 10 8 8 9 8 8 11 12 9 9 10 9 8 9 14 20 26 30 32 33 33 32 31 31 30 29 28 27 27 26 25 25 25 24 23 23 23 23 23 22 22 21 20 20 20 20 20 20 22 23 26 27 29 29 30 30 31 31 30 30 31 31
3 1 1 2 3 4 5 5 5 4 2 5 4 5 10 11 11 10 7 5 6 8 8 8 8 9 8 7 7 7 8 6 6 12 13 13 12 11 12 11 10 12 13 11 10 11 11 11 10 11 17 24 29 31 32 32 31 31 30 30 30 29 29 28 26 25 25 24 24 23 23 23 23 23 22 22 21 21 21 21 21 21 22 22 23 25 28 29 30 31 31 32 32 33 32 31 31
2 1 1 3 3 5 6 4 5 5 2 4 3 5 11 12 11 11 7 6 8 9 9 10 10 10 9 9 9 7 6 3 4 8 11 13 13 13 14 14 13 13 14 13 11 11 13 14 15 14 15 20 25 28 29 29 28 28 28 29 30 29 28 28 28 26 25 24 23 23 23 23 23 23 22 22 21 21 22 22 22 23 23 24 24 26 28 29 31 31 32 32 30 32 32 32 31
2 1 1 3 3 4 6 4 4 3 1 4 3 4 11 14 12 13 10 9 11 10 10 11 10 10 9 10 10 8 6 5 5 6 9 13 14 15 17 17 16 15 16 16 14 13 14 15 18 19 19 19 21 23 24 25 24 25 26 27 29 28 26 27 27 26 25 24 24 23 23 23 22 22 22 21 21 21 21 22 22 23 23 23 25 27 29 30 31 31 32 32 31 31 30 30 27
2 1 1 3 3 2 3 4 5 5 2 3 4 5 9 11 10 11 11 8 9 10 9 10 8 9 10 8 8 8 8 8 7 7 9 13 15 17 19 20 21 19 18 18 17 17 17 17 19 21 22 24 25 23 22 22 21 22 23 25 27 26 25 26 26 25 25 24 24 23 23 23 22 22 21 21 21 21 21 21 22 22 22 23 24 27 29 30 31 32 31 31 32 31 28 26 19
1 2 2 2 2 2 4 4 6 6 3 2 4 5 6 6 6 8 8 4 7 8 7 10 9 9 9 7 8 9 10 9 9 9 9 11 14 17 19 22 22 21 21 21 21 20 20 21 20 21 23 26 28 26 23 21 19 20 22 24 25 23 23 25 25 26 25 24 24 23 22 22 22 21 21 21 21 21 21 21 22 22 22 23 23 25 28 30 31 31 30 29 29 28 27 25 18
2 3 4 4 4 4 4 5 5 5 4 2 5 5 6 5 5 10 9 6 9 6 4 11 11 8 8 9 11 11 10 10 9 9 9 10 15 17 18 20 21 22 23 23 23 23 23 23 23 23 25 26 27 28 27 23 19 19 23 26 25 23 23 24 25 27 27 26 24 23 22 21 21 21 21 21 22 21 21 21 22 22 22 23 23 25 27 29 30 29 29 27 25 24 25 26 22
2 3 4 5 4 3 3 3 3 2 4 3 3 1 6 7 9 15 13 10 13 9 7 12 12 9 9 9 11 10 11 11 10 9 9 11 15 17 18 21 23 24 26 24 23 24 25 25 24 25 26 27 28 29 30 28 24 21 22 24 23 23 21 19 21 25 27 27 26 24 23 22 21 21 21 21 21 21 20 20 20 20 21 22 23 25 27 28 29 28 27 26 23 21 22 23 23
2 2 3 3 3 3 3 1 0 2 4 4 2 4 4 7 12 13 6 6 12 12 12 14 13 13 13 12 12 11 12 12 10 10 11 11 14 18 21 25 26 27 27 26 24 24 25 25 26 27 28 29 30 30 30 29 28 26 25 24 22 21 20 18 19 23 25 26 25 24 24 23 22 22 21 20 20 19 19 18 18 18 19 21 22 23 24 24 25 25 24 22 20 19 19 19 20
4 3 2 2 1 2 2 2 2 1 3 5 2 3 1 7 11 6 2 3 12 13 15 15 14 15 14 13 13 12 12 11 10 12 12 12 17 23 26 27 28 28 27 27 27 26 26 25 26 28 29 30 30 31 31 30 29 29 29 28 25 23 23 22 21 22 23 25 25 24 24 23 23 22 21 20 19 19 18 18 18 18 18 19 19 18 18 18 18 18 18 18 16 17 19 17 16
3 2 1 3 3 2 2 1 2 2 2 4 4 4 1 6 11 4 2 4 10 11 12 12 12 12 12 13 14 13 11 9 10 12 12 14 19 24 26 25 27 28 27 26 26 26 26 25 27 28 29 30 31 31 32 31 29 29 30 30 27 24 23 24 23 22 23 24 25 25 24 24 24 23 23 22 21 20 20 19 18 18 17 16 15 15 14 14 14 15 14 15 15 17 18 17 17
1 3 3 4 3 3 4 1 2 3 2 6 6 5 3 4 9 3 3 5 7 7 8 9 9 10 11 11 12 12 11 9 9 10 11 13 17 20 22 24 27 28 27 25 26 27 27 27 28 29 29 30 31 31 32 32 31 31 31 31 30 28 26 26 26 25 24 24 25 25 25 25 25 24 24 24 23 22 20 19 18 17 16 16 15 14 13 13 14 15 14 15 16 16 18 18 18
2 4 3 4 5 4 4 4 3 2 4 6 3 2 3 4 9 5 5 7 7 6 7 10 11 11 10 10 10 10 10 9 9 9 9 10 11 15 21 25 26 27 28 28 29 28 28 29 29 29 29 29 31 31 32 32 32 31 31 32 32 31 30 30 30 29 28 27 27 27 27 26 26 26 25 25 24 22 21 20 18 18 17 17 17 16 15 15 15 15 15 15 15 15 15 16 17
3 3 4 3 4 4 3 4 1 2 5 3 1 1 2 7 12 13 14 15 12 10 10 12 13 13 12 11 10 10 9 9 9 9 9 8 9 12 18 23 25 27 30 31 30 29 29 30 30 29 29 30 30 31 31 31 31 31 30 31 31 31 31 32 32 32 31 30 29 29 29 29 29 29 27 26 25 23 22 21 20 20 20 19 18 17 17 16 15 15 15 15 15 14 14 15 16
1 2 3 3 2 3 3 4 3 4 5 4 3 2 3 7 9 13 17 18 16 11 10 12 13 13 13 12 10 9 9 9 9 9 8 9 10 12 18 23 26 28 31 32 32 31 31 31 31 30 29 29 30 30 31 30 31 31 30 30 31 31 31 31 31 32 32 31 30 31 31 31 31 30 29 27 25 24 23 23 23 22 21 20 19 18 17 16 15 15 14 14 15 15 15 16 15
1 3 4 3 3 2 3 3 2 4 5 4 3 2 3 4 4 7 11 11 10 9 9 10 10 11 11 11 10 9 9 10 9 9 10 11 12 16 20 23 26 29 30 31 32 33 32 31 33 32 29 29 30 30 30 30 30 30 30 30 31 31 31 31 31 30 31 31 31 31 31 31 30 29 28 26 26 25 25 25 23 21 20 19 18 18 17 17 16 15 15 16 16 16 16 15 14
0 2 4 1 3 3 2 3 4 3 5 4 2 3 5 4 11 15 12 11 11 11 10 8 9 11 10 9 10 10 10 10 9 9 11 12 14 18 21 23 26 27 28 29 30 32 33 31 32 32 30 30 30 30 30 30 29 29 29 29 30 31 31 32 31 31 31 31 31 31 30 30 29 28 28 27 27 27 26 24 21 19 18 18 17 17 17 17 17 17 18 19 18 17 16 15 15
1 2 2 3 3 4 1 2 2 1 4 3 2 5 6 4 11 13 8 9 9 7 8 8 10 12 10 10 11 10 10 10 10 11 12 13 14 17 22 25 27 28 28 30 31 32 33 31 31 31 30 30 30 30 30 29 29 28 28 29 30 31 31 32 31 31 30 30 30 30 30 30 30 29 29 29 29 27 24 22 20 19 18 18 17 17 17 18 19 19 20 20 19 18 16 15 15
3 1 3 2 1 3 2 2 3 1 4 4 3 8 10 5 6 7 8 11 9 4 6 8 9 10 10 10 11 11 12 12 12 12 12 13 12 16 22 27 30 32 32 34 33 31 30 30 31 32 32 32 32 31 30 29 29 28 28 29 30 30 30 30 30 30 31 30 30 30 30 30 30 30 30 30 28 25 22 21 20 20 19 19 19 19 19 19 19 19 19 18 18 17 17 16 14
4 2 2 2 1 1 2 1 3 1 4 5 3 7 10 6 6 7 11 13 10 6 6 8 10 10 9 10 11 12 13 12 11 11 11 12 11 15 22 26 30 33 33 32 33 30 29 29 31 32 32 32 32 31 30 29 29 28 28 28 29 29 29 30 30 30 31 31 31 31 31 31 31 31 30 29 27 25 23 22 21 21 20 20 20 20 19 19 19 19 18 18 17 17 17 17 16
2 0 1 1 2 2 1 2 2 1 3 6 5 7 7 7 6 7 13 14 9 8 7 8 10 9 8 9 10 11 12 11 11 11 11 12 12 16 24 28 30 32 32 31 32 31 30 29 30 30 30 30 31 31 30 29 29 28 28 28 28 29 29 30 31 31 31 31 32 33 33 33 33 32 30 28 27 25 24 23 22 22 22 21 21 20 20 19 19 18 18 18 18 17 17 18 17
4 2 1 2 2 1 2 3 2 2 2 3 6 8 9 10 7 9 13 12 8 8 8 7 8 8 9 9 9 10 11 12 12 11 11 11 11 15 22 26 27 29 30 31 31 31 30 29 30 31 30 31 31 31 31 30 30 29 28 29 29 29 30 30 30 31 31 32 32 33 34 34 33 32 30 29 27 26 25 24 23 23 22 22 22 21 21 20 20 19 18 18 19 19 18 18 18
5 5 5 4 4 2 3 3 3 3 3 3 4 7 13 14 5 4 8 7 7 8 7 6 8 10 11 8 7 10 11 12 13 13 11 10 9 12 18 22 25 26 27 30 31 30 30 30 30 31 32 32 32 32 31 31 30 29 29 30 30 29 29 30 30 31 32 33 34 34 34 34 33 32 30 28 27 26 25 24 23 23 23 23 23 23 22 21 20 20 20 20 20 20 19 19 19
Wind_Direction
325 324 326 323 327 334 319 62 88 317 103 257 252 209 252 228 239 281 268 263 271 249 220 189 192 165 139 171 172 161 143 169 163 146 210 246 148 157 162 165 161 159 159 159 162 163 163 165 163 159 159 158 155 156 160 160 158 154 152 155 154 154 149 150 150 144 143 138 137 132 127 127 123 121 117 112 109 105 102 97 96 93 91 86 84 85 88 88 80 77 75 73 71 74 80 82 87
329 328 334 330 336 19 235 83 122 290 70 262 250 183 243 269 214 239 237 231 220 204 158 138 140 123 46 38 128 123 93 268 171 158 247 140 141 154 162 163 160 158 158 159 161 162 163 165 163 160 159 159 159 161 163 160 157 156 156 155 156 158 150 153 154 148 147 143 141 136 131 131 128 125 119 114 111 109 106 103 102 99 97 95 93 93 91 85 80 84 83 84 82 83 85 83 87
331 328 336 344 341 49 104 51 159 198 188 237 254 219 226 210 217 229 230 228 224 179 148 157 107 87 33 355 149 139 192 321 167 176 119 144 147 159 164 162 160 159 158 159 162 162 163 163 162 162 161 162 162 163 164 162 161 159 159 158 158 157 154 160 158 151 150 148 144 140 136 134 134 131 127 122 116 114 114 111 107 104 102 107 108 101 94 88 90 90 85 86 86 88 90 86 88
330 331 330 347 102 39 83 57 184 163 201 221 254 243 203 212 227 236 241 241 225 172 161 263 84 46 96 201 249 80 205 208 173 195 135 158 165 162 162 160 160 159 158 160 162 162 163 163 163 162 162 163 164 164 163 164 165 163 163 162 160 157 160 165 159 154 152 150 147 145 143 139 139 136 133 127 121 117 115 114 112 110 108 113 112 98 93 94 94 91 90 89 88 92 93 89 90
330 332 324 3 137 145 118 185 148 172 214 191 231 254 219 220 235 250 264 257 207 171 194 123 114 240 97 171 185 132 208 131 182 198 139 162 168 160 160 159 158 158 159 161 163 164 164 164 165 163 162 163 164 164 163 165 168 170 167 164 162 161 166 164 157 156 154 153 152 150 145 141 141 139 137 131 123 117 108 105 107 109 107 103 95 91 93 93 92 92 93 93 93 97 96 91 92
339 337 323 359 200 149 135 228 194 212 218 173 214 262 240 227 234 248 275 275 197 209 213 158 164 157 88 302 115 191 197 117 180 184 151 159 166 161 159 158 158 158 160 163 164 165 164 164 165 164 163 163 164 166 167 168 172 175 171 169 168 167 169 163 157 159 159 158 156 150 144 142 142 139 136 129 120 110 100 98 101 103 101 97 94 96 98 94 94 94 93 96 101 103 98 89 92
351 342 329 26 302 12 210 230 216 222 222 183 200 245 238 226 227 246 304 214 276 286 219 223 172 121 220 283 141 238 325 161 170 168 163 160 163 161 159 159 158 159 162 164 165 165 164 166 165 164 165 165 165 169 172 171 173 178 177 175 172 168 168 166 165 165 163 159 153 146 143 141 140 135 129 121 115 106 103 105 108 109 108 106 103 102 101 100 99 98 98 99 99 97 95 88 95
357 3 36 101 240 327 231 243 232 215 235 220 206 233 224 197 212 263 3 177 225 277 310 254 202 107 250 339 141 297 8 169 162 160 163 159 162 160 160 160 158 160 163 166 167 165 164 166 166 166 167 166 167 170 172 170 173 176 174 171 169 167 169 171 169 166 163 157 149 144 144 144 137 131 124 117 113 109 108 110 110 109 109 107 105 105 104 101 97 98 103 107 100 87 89 91 97
23 57 75 120 217 268 256 254 252 230 246 253 230 237 232 177 183 202 259 266 259 242 244 198 163 275 225 64 230 290 55 151 153 155 159 161 161 161 162 162 160 161 164 167 167 165 164 167 168 169 170 169 169 169 170 169 169 168 166 165 168 171 172 173 168 164 160 154 147 146 147 143 136 129 122 117 114 114 112 110 109 107 105 104 105 106 106 102 96 97 99 106 108 93 91 94 94
41 33 154 139 197 238 250 243 254 256 242 250 244 241 244 185 162 239 234 271 239 196 253 147 103 259 169 134 223 293 153 151 149 152 159 163 161 162 164 164 164 163 165 167 168 166 165 168 170 172 173 170 169 169 170 168 167 167 166 166 172 174 172 170 167 163 157 150 147 149 148 141 136 132 126 120 115 117 116 113 112 112 111 111 111 105 104 104 102 104 100 101 105 101 98 95 95
50 348 120 183 230 227 242 236 244 260 276 283 269 253 237 202 196 254 233 267 228 151 209 115 141 201 120 197 239 263 164 153 152 154 161 165 162 165 165 165 167 166 167 167 168 167 166 170 172 175 175 169 170 172 171 170 170 171 169 168 170 171 169 166 164 161 154 151 151 151 148 145 142 136 133 127 121 120 119 118 116 116 117 115 111 106 110 111 108 107 104 103 104 105 101 97 102
129 319 91 190 227 224 228 230 248 264 285 277 271 290 224 178 171 238 230 250 219 140 200 177 180 145 112 249 279 209 164 158 158 156 163 165 164 167 166 166 167 168 169 169 169 168 168 171 171 176 176 171 172 174 172 173 175 173 169 166 166 167 165 163 161 158 154 153 155 154 150 149 147 142 141 138 131 131 130 132 127 121 118 114 112 111 114 113 111 111 111 108 106 104 101 100 104
167 171 106 198 214 202 201 224 260 270 270 253 258 304 337 177 199 231 212 236 209 155 234 201 160 102 121 244 260 178 164 165 161 159 165 165 165 166 167 167 168 170 171 171 171 171 170 170 172 176 177 175 175 174 173 176 178 175 170 167 165 165 164 161 159 157 156 155 155 155 152 150 150 149 150 148 142 143 138 130 124 121 119 117 119 119 120 119 116 116 117 112 106 106 104 104 105
184 164 134 228 250 163 198 223 241 242 257 236 263 316 340 298 251 242 175 235 233 183 246 218 148 112 133 201 179 191 168 168 163 162 165 164 168 166 167 168 168 170 171 172 172 172 172 171 174 176 178 177 176 175 175 178 180 179 175 172 167 166 166 162 161 159 158 159 158 157 157 154 155 155 155 154 147 146 140 130 125 125 124 123 122 122 124 125 123 120 116 112 111 112 110 108 107
175 147 118 216 285 256 220 223 196 218 251 183 289 336 321 281 329 309 182 232 250 223 248 4 132 143 192 179 197 206 170 169 165 164 164 166 169 166 168 168 168 169 170 173 172 173 174 174 175 177 178 178 177 176 177 180 182 183 178 175 171 170 170 165 163 164 164 165 165 163 162 158 158 160 160 155 144 142 140 136 135 134 131 130 127 125 125 125 126 124 118 116 118 118 116 111 105
150 107 96 231 240 221 219 214 175 211 256 232 284 355 322 275 16 341 274 242 257 317 28 54 16 73 207 188 271 198 167 169 165 164 165 166 168 166 167 166 167 168 170 173 173 174 176 177 177 177 179 177 178 177 178 180 181 183 180 178 175 174 175 171 169 169 170 171 172 167 161 157 159 162 159 152 142 139 139 138 138 137 134 134 135 134 135 135 134 130 125 124 122 122 123 122 114
114 106 169 242 223 204 204 191 181 208 269 287 323 10 1 290 339 312 312 17 193 328 14 33 311 48 214 253 315 193 166 168 164 165 165 164 166 164 163 163 165 166 169 172 172 175 176 177 176 177 179 178 179 177 178 179 181 182 180 180 176 176 178 175 174 175 175 174 171 162 156 158 164 163 156 150 144 140 141 140 139 137 137 141 144 145 148 147 143 139 135 132 131 130 133 137 134
133 137 196 236 223 208 191 187 203 199 274 300 322 351 333 286 324 329 334 11 16 331 1 2 285 1 287 310 329 176 166 168 166 167 166 165 169 164 161 161 163 165 167 171 173 174 174 175 175 176 178 177 178 178 178 178 179 180 179 179 176 177 179 177 176 175 172 167 161 157 158 165 165 159 153 147 145 145 145 143 142 141 145 151 154 154 155 151 146 144 143 144 142 139 141 143 136
165 149 198 236 215 211 185 183 239 238 264 291 312 318 295 258 319 339 331 318 266 252 295 338 358 5 0 356 350 156 170 171 169 172 169 168 173 166 161 160 163 166 167 173 175 174 174 175 176 178 177 176 178 178 178 178 177 178 178 177 176 176 175 174 175 169 162 158 157 160 165 166 160 154 150 148 149 150 150 149 148 150 154 157 158 156 154 150 147 146 148 151 147 140 138 140 136
205 160 208 241 211 221 238 247 271 254 261 295 309 305 310 301 339 332 310 225 215 221 257 319 197 359 344 335 344 345 213 181 174 177 173 172 176 168 164 164 165 167 169 173 175 175 176 176 177 179 178 176 179 180 178 179 176 174 174 173 171 168 166 169 170 165 162 162 162 166 166 161 155 152 150 152 154 154 154 157 156 159 160 159 160 157 159 158 152 148 148 150 151 147 138 141 147
250 171 195 229 188 192 245 305 288 280 260 253 300 328 328 325 56 4 319 230 222 211 25 352 319 330 330 323 337 342 323 207 179 182 178 172 177 172 169 169 168 168 169 171 174 177 176 176 177 176 177 177 178 179 176 175 172 170 170 169 167 164 165 168 169 169 168 168 167 168 165 158 155 153 155 158 159 162 163 166 168 169 166 159 157 149 159 163 156 150 148 151 151 147 139 141 147
296 238 192 221 160 182 256 314 299 301 322 306 335 347 332 342 36 19 349 245 243 2 1 347 331 328 326 326 336 341 343 334 188 187 183 173 174 174 171 169 169 169 170 171 174 177 177 175 177 176 176 177 178 178 174 173 171 170 169 169 169 168 170 172 173 174 172 171 170 169 164 158 157 157 160 164 167 172 173 176 174 171 166 154 150 144 143 148 148 144 145 150 145 141 142 142 141
292 291 276 267 206 182 262 314 310 352 358 335 335 319 349 8 322 305 294 228 259 340 334 341 324 329 332 333 347 350 353 355 356 342 209 180 175 174 170 168 170 172 171 173 173 176 178 175 177 180 178 175 177 179 174 173 175 174 173 173 175 175 176 177 176 175 172 170 170 169 165 160 162 164 167 171 175 180 181 180 173 166 161 149 150 152 143 137 141 142 147 153 147 145 149 148 146
276 283 316 310 256 223 255 291 301 235 244 270 302 350 26 4 306 302 258 236 257 344 345 348 310 323 353 357 7 357 353 355 357 3 357 329 175 172 169 167 172 174 172 174 174 176 179 176 176 181 181 176 176 180 177 176 178 178 177 178 179 179 179 179 175 173 170 169 171 170 168 167 168 169 171 177 182 185 184 179 172 168 164 156 155 163 161 148 147 151 155 155 150 150 149 148 147
48 301 307 325 296 274 290 295 282 251 240 251 357 340 260 209 195 289 257 242 12 349 351 349 327 341 11 12 14 5 358 353 351 360 360 355 35 165 164 165 170 170 172 176 176 176 179 178 178 183 183 178 176 181 181 179 180 180 180 180 180 180 180 178 173 170 168 169 173 175 177 177 177 177 177 183 188 187 184 180 175 173 173 172 168 171 175 161 153 158 159 153 150 151 147 144 143
1 316 295 306 302 298 321 310 281 276 263 261 353 294 260 210 189 275 253 249 357 351 355 352 350 360 5 5 18 16 3 357 354 354 351 355 13 110 153 160 165 165 169 175 175 177 182 180 179 186 187 182 179 182 182 181 181 181 182 181 181 180 178 175 171 170 171 173 177 180 184 185 187 189 188 190 193 190 185 183 180 177 179 183 182 179 175 167 161 162 159 154 152 152 146 143 141
310 307 286 286 295 296 328 307 287 308 275 235 235 267 264 209 219 262 303 348 350 351 348 348 3 9 1 352 13 25 8 6 4 359 351 355 12 16 37 147 161 162 165 173 174 173 180 181 179 186 190 187 184 184 183 182 182 183 182 181 180 179 177 174 172 173 175 179 182 185 186 189 195 201 203 199 195 193 187 184 183 182 183 184 184 178 170 166 163 161 159 156 155 152 145 142 140
312 318 306 296 307 299 318 322 302 322 282 206 185 240 281 96 231 227 335 339 317 334 320 321 359 354 354 348 357 24 11 353 10 24 360 344 354 2 356 352 159 164 163 171 176 170 173 179 183 189 190 189 187 184 184 182 182 183 182 181 180 178 177 175 176 178 180 184 188 189 188 194 200 203 206 204 198 195 190 187 184 183 184 180 177 174 167 165 163 159 158 158 156 152 146 142 140
310 355 322 303 344 346 329 336 306 321 315 249 166 262 263 204 237 297 336 331 292 308 296 276 305 309 319 338 325 4 21 331 345 42 358 328 343 356 355 339 334 176 168 170 175 173 172 174 181 190 191 189 187 185 184 183 183 183 182 181 180 178 177 178 181 182 184 186 188 190 191 196 202 204 203 202 200 198 193 189 184 181 181 177 173 172 168 165 164 159 157 156 153 150 145 141 139
292 25 87 312 355 348 338 338 311 198 159 346 326 250 265 234 295 330 305 323 310 303 288 273 207 253 285 264 290 287 69 312 310 333 295 309 340 352 355 340 333 308 184 176 175 176 179 177 176 185 191 189 187 187 185 184 184 183 182 181 180 179 179 182 186 189 191 189 190 193 194 197 201 202 201 200 199 198 194 188 183 179 175 174 172 173 170 166 165 161 157 153 149 147 142 138 139
306 343 27 3 7 295 325 335 349 52 7 0 45 221 270 265 291 308 284 304 308 302 294 290 257 229 260 255 261 257 206 171 276 291 281 295 330 345 347 342 330 319 244 187 180 179 184 184 175 179 188 189 187 188 187 185 185 183 183 181 180 180 182 186 187 189 191 190 193 196 197 198 200 201 199 199 198 196 194 186 182 178 173 172 172 172 171 167 165 161 159 156 147 143 139 134 135
13 4 320 359 80 290 315 328 24 23 301 359 68 226 276 280 280 273 279 294 276 286 283 280 276 263 257 259 251 262 254 177 222 256 262 294 341 330 323 325 323 318 295 227 188 183 186 187 178 175 183 187 188 189 188 187 184 184 185 183 182 182 184 187 187 189 190 191 196 199 200 200 201 200 197 198 199 195 192 187 183 178 174 172 171 171 170 167 165 159 158 160 151 142 137 132 129
8 43 317 331 3 326 320 324 15 1 309 350 37 253 283 282 280 271 286 288 261 274 275 268 264 257 249 248 241 239 259 230 214 231 248 278 334 306 289 291 301 312 301 268 207 185 183 184 181 175 177 182 186 189 189 187 185 184 187 185 184 185 187 188 191 196 198 198 200 201 202 202 201 200 196 197 199 195 191 189 184 180 175 174 171 170 168 166 166 160 154 157 155 146 139 132 126
337 15 13 321 321 328 324 314 340 9 16 345 355 315 272 271 283 285 279 270 257 260 270 273 267 253 248 242 244 228 222 250 240 224 234 239 244 259 253 253 271 286 284 261 224 199 183 176 177 176 174 177 182 186 188 187 186 185 185 186 186 185 188 191 195 200 201 200 200 200 200 199 199 199 197 196 196 194 191 189 187 181 176 174 173 169 167 165 165 164 155 150 153 149 142 135 128
306 326 343 326 321 288 303 299 324 8 16 330 328 306 282 286 294 292 277 259 252 248 256 274 278 268 255 237 240 242 224 226 230 223 226 226 224 239 243 230 240 257 260 242 215 209 198 172 167 170 170 173 178 182 184 184 184 183 181 183 185 185 188 193 196 198 198 198 199 199 198 196 197 196 196 195 194 193 190 189 188 182 177 175 173 169 166 164 163 164 158 150 147 146 143 138 132
245 269 273 295 318 291 281 278 292 3 351 306 305 292 290 295 293 292 288 272 251 254 255 262 274 276 267 247 236 241 243 235 217 211 210 211 212 220 233 224 214 233 244 231 199 196 206 191 163 157 163 168 170 174 178 179 178 178 178 180 182 184 188 191 193 195 195 197 198 198 197 196 195 193 193 193 192 192 190 189 187 180 177 175 175 171 168 167 165 162 158 154 148 140 140 139 137
210 237 308 278 282 284 283 281 296 351 332 279 291 296 291 288 285 279 282 294 268 258 257 251 255 264 266 259 245 236 247 251 211 204 200 199 205 211 224 224 212 218 230 226 197 182 193 199 187 161 157 163 164 166 169 172 172 173 175 178 180 181 184 186 187 190 192 193 195 196 197 196 195 193 193 193 191 192 189 186 184 178 176 176 176 174 170 168 167 164 157 155 152 145 140 141 143
154 182 346 318 276 268 276 276 305 352 357 278 303 308 286 280 282 277 272 279 266 249 247 250 243 246 258 262 256 242 239 231 169 196 199 198 203 205 217 222 215 217 226 221 202 185 182 189 197 189 170 161 159 161 164 168 171 172 173 177 181 179 181 184 185 186 188 190 191 194 195 195 195 193 193 193 192 192 189 185 182 178 175 175 174 172 171 169 167 167 160 154 153 151 147 146 147
91 95 344 308 291 279 288 296 323 352 346 292 320 307 279 274 273 274 267 255 258 248 237 245 242 239 242 247 255 247 234 219 186 195 198 200 203 203 211 217 212 215 222 215 200 193 187 184 192 194 188 176 167 164 165 167 170 174 177 179 180 178 179 183 184 184 186 188 189 191 193 193 193 192 191 192 192 192 190 186 181 178 175 174 173 169 168 169 167 168 167 161 155 150 148 151 153
99 92 290 288 311 325 296 308 326 324 274 261 293 288 277 277 274 271 266 254 265 265 253 256 251 245 244 243 256 251 237 226 208 203 197 197 201 201 206 210 208 210 215 212 200 194 193 189 189 189 191 191 185 177 173 174 175 178 179 176 176 178 179 181 182 182 183 185 185 187 190 191 192 192 189 189 190 190 188 185 181 177 175 175 175 171 168 169 169 169 170 169 162 154 151 159 167
258 206 184 217 276 258 244 278 315 326 304 255 305 306 283 288 293 278 281 295 287 279 279 279 263 248 255 262 260 249 242 234 215 210 200 192 198 202 205 206 205 205 211 211 204 199 196 193 190 188 191 195 193 190 186 183 180 180 177 172 173 174 173 176 177 176 178 181 181 182 185 189 191 190 188 186 186 185 183 182 180 176 173 172 174 173 171 171 172 172 172 171 170 166 163 168 175
292 227 181 184 208 227 258 300 334 353 334 334 25 355 289 292 294 272 276 288 277 266 260 272 266 249 241 246 247 241 242 242 226 216 202 194 200 202 206 207 203 203 209 211 205 201 199 195 190 187 190 194 195 197 197 195 190 185 178 171 169 169 168 174 176 173 174 177 178 180 181 184 186 185 182 181 180 179 177 177 175 172 169 169 171 172 172 172 173 174 175 173 174 177 176 174 175
303 238 180 175 168 198 269 325 8 356 288 289 75 88 271 294 284 264 260 263 266 264 253 259 265 259 240 234 240 234 233 236 231 223 206 196 200 199 205 208 204 204 208 210 206 202 199 196 191 188 190 192 193 194 197 199 198 195 189 179 172 169 169 174 178 175 174 175 176 178 177 176 178 177 176 176 176 174 172 171 170 169 170 169 170 171 171 173 174 175 177 178 180 183 184 182 179
279 235 163 172 175 226 243 135 159 237 278 296 150 162 255 284 271 262 255 263 270 267 260 255 254 253 248 242 239 233 228 226 225 224 214 203 200 199 205 208 208 208 207 206 206 203 201 197 192 191 191 192 193 194 194 197 197 194 194 191 184 180 180 180 176 173 171 171 172 173 172 171 172 174 173 172 170 169 168 167 168 170 172 169 168 169 169 170 175 177 179 185 189 190 193 194 189
269 239 218 262 227 237 206 165 232 272 339 305 217 150 261 269 267 274 87 251 264 261 255 252 250 251 252 252 249 243 235 226 221 223 218 210 203 204 207 207 208 209 206 204 203 203 202 197 193 191 192 193 194 195 195 195 195 190 186 186 184 183 184 182 177 172 170 169 169 169 170 169 169 170 169 167 165 164 163 160 160 161 162 163 163 162 162 164 172 176 180 188 196 199 201 204 202
266 222 320 351 33 28 48 153 220 47 354 263 209 169 196 278 277 288 91 241 252 256 258 256 254 253 251 252 252 249 243 230 224 226 225 217 210 209 209 206 207 207 206 204 201 201 200 196 193 192 192 194 195 196 196 195 195 191 186 184 182 180 179 176 174 172 170 168 166 166 167 167 166 165 165 165 163 160 158 155 155 156 159 163 163 162 164 167 170 173 180 187 194 202 203 203 204
322 44 1 342 6 25 29 23 79 69 288 254 224 193 157 296 285 243 164 223 219 231 260 263 259 257 252 250 250 250 248 237 226 226 230 226 216 208 203 203 206 205 203 203 201 201 199 196 195 193 193 194 194 194 195 194 194 194 192 190 188 186 183 178 174 173 172 171 168 167 167 166 164 164 162 162 162 161 162 163 163 165 169 173 172 173 178 179 175 177 185 188 191 199 201 198 198
61 55 24 338 328 360 16 354 37 94 259 262 246 205 154 238 267 245 218 236 215 210 247 262 264 260 255 252 250 247 245 241 232 224 225 220 206 196 195 200 203 200 199 199 200 200 198 198 196 193 194 194 193 193 193 192 191 192 194 195 195 195 192 188 183 180 179 177 173 170 168 167 165 166 165 164 166 169 170 171 171 172 176 177 175 176 179 178 177 179 184 186 187 193 195 194 193
67 60 53 28 343 360 354 324 339 211 250 261 223 220 218 238 256 261 262 265 256 237 237 252 261 262 260 254 248 245 242 238 233 228 221 206 197 194 194 197 197 196 198 197 197 197 197 198 197 195 194 193 193 193 193 191 190 191 193 194 196 196 195 193 190 187 184 181 179 175 172 171 170 170 171 171 172 174 175 175 176 178 179 178 176 176 176 175 176 178 179 180 184 187 188 188 185
122 122 98 103 69 22 315 288 299 285 279 271 225 204 266 269 262 250 249 258 261 252 239 239 246 252 256 253 246 245 242 235 229 227 220 206 202 201 199 197 195 196 199 197 195 196 196 196 197 197 196 193 192 193 193 191 190 192 193 194 195 195 193 193 192 190 187 185 183 181 179 177 175 175 175 175 175 176 178 179 179 179 179 178 178 177 177 177 178 181 182 183 183 183 182 180 177
169 151 129 133 140 153 264 252 259 290 291 271 223 189 227 258 279 250 237 247 256 253 243 238 243 246 250 257 257 249 243 238 229 224 219 211 206 203 200 199 197 198 199 196 195 194 194 195 195 195 194 193 191 192 192 191 190 191 194 196 198 197 195 194 194 192 190 189 188 186 185 182 180 178 177 177 178 179 179 178 178 180 180 181 181 181 181 182 185 188 187 183 179 176 174 171 168
224 139 116 135 177 166 219 214 201 267 300 274 217 232 223 239 283 280 269 266 261 256 255 250 251 251 248 256 258 251 246 241 231 225 222 216 209 202 198 198 199 198 197 197 196 194 193 194 193 193 192 192 191 191 192 191 189 190 192 195 197 198 196 196 196 195 195 195 193 191 189 186 183 181 179 180 179 179 178 177 179 182 183 183 182 184 186 186 187 187 182 177 173 170 170 167 163
167 123 172 233 182 132 94 266 232 7 298 264 204 264 273 293 287 283 290 287 269 262 266 254 250 254 251 249 252 251 248 242 234 226 222 218 209 201 197 196 195 195 194 196 198 196 194 192 191 190 190 190 190 191 191 190 189 190 191 193 196 197 198 199 198 197 196 196 194 193 190 187 185 182 181 181 179 178 179 181 183 184 183 184 184 187 189 186 184 182 179 176 171 169 169 165 164
123 151 222 227 147 109 91 286 298 338 279 269 209 263 285 303 286 298 317 297 289 294 278 266 262 260 255 252 253 252 250 245 239 232 226 220 209 200 198 195 193 193 193 194 196 196 194 192 190 189 188 189 189 190 190 190 189 189 190 192 194 196 198 199 200 198 196 194 193 192 190 187 185 184 182 180 179 179 182 186 187 184 183 185 185 186 185 183 182 179 177 175 171 171 169 163 162
118 192 206 131 159 233 108 223 265 274 289 284 236 264 279 255 244 283 289 283 295 305 268 260 265 261 259 261 259 257 256 253 245 237 231 220 208 200 197 194 192 190 190 190 191 192 192 192 191 190 190 189 188 188 188 188 189 189 190 191 193 194 194 197 198 198 197 195 193 192 190 188 186 185 183 181 182 184 185 186 187 186 185 185 184 183 182 182 182 180 177 175 172 173 171 162 160
105 263 341 120 193 216 165 222 242 214 282 294 296 300 285 242 222 252 270 276 287 284 264 258 262 260 257 258 260 259 257 256 250 242 233 219 207 200 195 191 188 185 183 183 184 187 189 190 189 188 189 187 186 187 186 187 188 189 189 189 190 191 193 196 198 198 197 196 195 192 190 189 187 186 185 185 186 187 187 186 187 188 187 184 182 182 183 184 185 185 182 179 175 174 172 165 162
156 185 218 208 205 223 243 229 196 207 261 288 294 298 285 274 260 241 257 272 269 260 264 263 260 263 262 258 262 269 267 266 262 255 243 223 205 195 189 185 182 178 176 176 179 183 185 187 187 187 186 185 185 186 186 187 188 188 188 188 188 189 192 194 196 198 198 196 195 193 191 190 189 188 188 188 189 189 189 188 188 189 187 185 185 185 186 187 186 185 185 182 177 175 175 170 166
165 182 188 191 182 169 252 249 196 207 227 224 267 292 283 277 268 199 231 247 251 252 253 261 272 278 278 269 261 270 275 275 271 264 246 217 194 179 173 171 170 171 172 173 176 179 182 185 186 186 185 185 185 185 186 187 186 186 188 188 187 187 189 192 193 195 196 195 194 192 191 190 188 188 189 191 192 191 190 190 188 189 189 189 190 189 188 189 188 186 183 181 179 178 177 174 170